Voltar ao catálogo

SL-12 R/B(2)

AtivoGEO
NORAD 23883·ROCKET BODY·🇷🇺 Russia

Lançado May 25, 1996 de Baikonur Cosmodrome

Loading…

TLE

AtualizadoSource: Space-Track

Época: Aug 28, 2026, 20:08 UTC

1 23883U 96034D   26240.83937742 -.00000027  00000-0  00000+0 0  9992
2 23883  15.2957 357.4039 0028678 104.5986 254.0423  0.97943727108243

Acompanhe SL-12 R/B(2) em tempo real com AllMySat

Download on the App Store